sat.trackr.live / text

‹ back to catalog

STARLINK-37352

NORAD 69524 · 2026-133S

PAYLOAD ACTIVE UNKNOWN

§ Identity

Operator
Country
US
Launch date
2026-06-12
Launch site
AFETR
Launch vehicle
Mass (kg)
RCS (m²)

Purposes: comms

External: N2YO · Heavens-Above · Gunter

§ Orbital elements

Epoch: 2026-09-19T13:40:17.444640Z

Period
93.85 min
Inclination
53.1571°
Eccentricity
0.0001360
Mean motion
15.34402986 rev/d
Perigee alt
461.8 km
Apogee alt
463.6 km
Semi-major
6,840.8 km
B*
4.1651e-4
RAAN
233.8870°
Arg perigee
92.3136°
Mean anomaly
267.8022°
Rev number
1,662

§ Raw data

STARLINK-373521 69524U 26133S   26262.56964635  .00013723  00000+0  41651-3 0  99982 69524  53.1571 233.8870 0001360  92.3136 267.8022 15.34402986 16629

JSON: /api/v1/satellites/69524 · /tle

For live sub-satellite position, see the globe view (requires WebGL).

§ Visibility from observer

Set your observer location to see the next 7 days of passes ≥ 10°. The values pass through the URL so the page stays shareable.

No JS? Fill the form by hand. The geolocation button needs JavaScript.